Location: Winthrop
(48.4780°N, 120.1850°W)
Time: 17:09:01
(UTC-07:00)

Explorer 7 - Pass Details

Date: 01 February 2023
Orbit: 478 x 657 km, 50.3° (Epoch: 30 March)

Event Time Altitude Azimuth Distance (km) Brightness Sun altitude
Rises 14:31:54 0° 263° (W) 2,752 11.0 17.7°
Reaches altitude 10° 14:34:06 10° 265° (W) 1,888 10.2 17.5°
Maximum altitude 14:38:26 75° 351° (N) 629 7.3 17.1°
Drops below altitude 10° 14:43:03 10° 77° (ENE) 2,003 9.3 16.7°
Sets 14:45:26 0° 79° (E) 2,936 10.1 16.4°
